Wind_Speed
57 58 59 59 61 60 61 64 67 69 71 71 74 77 77 78 80 82 85 87 89 90 92 93 95 99 104 108 113 117 119 118 119 123 125 126 129 131 135 134 131 132 132
60 62 62 62 62 63 66 68 69 71 73 73 75 77 80 82 85 86 88 90 92 94 96 98 100 104 108 115 116 118 120 122 122 125 124 127 132 136 134 132 132 130 125
61 63 65 67 68 69 71 72 71 74 76 78 80 82 85 88 90 91 93 96 96 99 101 101 105 110 116 120 123 124 124 125 124 123 125 129 134 134 132 132 130 125 120
66 68 69 71 72 73 74 74 75 78 79 80 84 87 90 93 95 97 100 100 100 101 103 109 113 119 119 119 122 123 125 125 126 126 129 132 136 136 133 129 124 119 116
69 72 73 72 73 74 75 77 80 82 85 88 89 91 94 97 100 101 102 102 104 106 110 112 114 116 121 122 126 128 127 129 130 133 137 137 139 137 133 127 120 117 113
73 74 78 80 80 78 80 81 83 85 87 88 92 95 97 100 102 105 106 108 111 116 119 119 119 122 124 127 131 133 135 134 136 138 138 143 142 137 131 123 120 117 111
78 79 83 84 84 82 83 85 87 87 89 93 96 98 101 105 108 108 110 115 114 118 123 126 126 129 129 135 135 140 137 138 141 140 146 145 140 133 125 121 120 114 111
84 86 87 90 90 87 88 86 87 93 97 99 98 101 104 109 112 114 117 118 121 125 128 130 131 132 136 139 142 141 143 144 145 146 144 142 135 128 124 123 118 113 107
92 94 93 91 90 90 91 92 95 97 99 100 103 106 107 110 112 117 120 123 125 129 131 132 133 137 141 144 143 146 144 145 147 148 143 137 131 128 126 120 116 111 100
93 94 95 95 95 95 96 96 95 96 99 103 105 109 112 115 117 123 124 126 132 132 134 135 139 143 147 147 148 145 144 146 146 142 138 132 130 127 124 121 114 106 98
95 96 98 99 100 99 96 93 94 97 101 104 110 113 117 120 123 125 127 129 131 133 136 141 144 150 150 153 148 145 145 141 138 135 133 132 129 125 122 117 110 104 96
91 94 94 94 98 101 98 100 101 103 105 107 110 113 117 120 124 127 130 132 136 137 140 145 148 148 151 146 145 142 139 135 133 133 131 127 125 121 115 111 106 100 94
99 99 100 102 103 107 105 108 108 112 115 113 114 117 121 123 127 132 134 137 140 142 145 148 147 146 142 138 138 137 136 134 133 131 128 126 122 117 112 107 102 95 88
110 109 108 109 113 112 114 115 117 119 117 119 121 125 128 131 133 137 139 143 146 147 148 145 141 139 136 135 135 135 135 133 131 130 129 124 118 113 108 99 95 89 82
116 116 116 118 119 119 118 120 118 121 123 127 129 131 132 135 138 141 144 146 146 146 141 136 134 133 133 133 132 132 131 129 128 126 122 118 112 105 98 94 89 84 77
121 121 121 123 123 125 125 125 128 128 127 128 130 132 135 139 141 142 141 138 136 134 132 132 133 134 134 133 132 131 130 129 125 121 117 111 105 99 95 92 86 81 76
125 126 125 124 126 125 126 126 128 127 128 130 129 129 131 130 129 129 129 130 129 131 131 132 133 133 132 132 132 131 127 124 120 116 112 106 100 95 92 89 83 78 75
115 114 114 115 114 114 114 114 115 115 116 117 118 120 121 121 122 124 125 126 129 130 132 131 130 130 131 130 127 124 122 119 114 107 102 98 95 92 89 85 80 75 72
108 107 106 106 106 107 109 110 111 111 111 111 113 113 117 120 122 125 126 127 128 128 129 129 129 128 127 125 123 120 116 110 104 99 95 94 91 86 83 80 76 73 69
105 106 106 105 105 105 107 109 110 111 112 113 115 116 118 121 121 123 125 126 127 127 127 126 125 124 123 122 118 113 108 103 97 94 92 88 85 82 78 76 73 70 66
106 107 108 108 108 109 109 109 110 111 112 113 115 117 119 120 122 124 124 124 124 124 123 123 121 119 118 114 111 105 100 96 93 90 87 83 79 76 74 71 68 65 61
107 107 108 108 109 110 110 111 112 113 114 116 118 119 121 122 122 121 121 121 122 121 120 118 116 113 109 104 100 97 95 91 88 86 81 78 75 72 69 67 63 60 57
108 108 108 108 109 111 112 113 115 116 117 118 119 118 117 118 118 119 119 119 119 117 115 113 109 105 100 96 94 91 90 86 82 79 76 74 72 69 65 62 58 55 54
110 111 111 112 113 115 115 116 116 116 116 115 115 115 116 116 117 117 116 115 113 111 106 102 98 96 93 91 87 85 84 81 77 75 74 72 68 64 61 58 55 53 50
115 115 115 115 114 113 114 114 114 114 114 114 114 115 115 115 114 113 111 108 104 99 95 92 91 88 87 84 81 79 77 75 73 71 70 67 64 61 58 56 53 50 48
115 114 113 112 112 113 114 114 114 114 114 114 113 112 111 108 105 102 99 96 93 91 89 86 84 82 81 79 77 76 74 71 69 68 67 64 61 58 56 53 51 48 47
Wind_Direction
284 283 285 285 287 286 286 287 287 288 288 289 288 288 289 290 291 292 293 293 293 295 295 296 297 298 300 300 302 302 303 302 302 303 304 305 307 308 308 307 307 307 308
287 288 289 289 287 286 286 288 288 288 287 287 287 288 290 292 292 291 291 293 294 295 294 296 297 298 298 301 303 303 303 303 302 303 304 306 307 308 307 308 308 309 310
290 290 289 289 289 289 290 290 290 288 287 288 289 290 292 292 292 291 292 292 292 295 297 298 299 299 299 300 301 301 303 303 303 304 305 308 308 308 308 309 310 311 311
291 291 289 288 288 289 290 289 289 289 288 289 290 291 293 295 294 292 293 294 295 297 297 297 297 297 298 299 303 304 303 303 305 306 308 308 309 310 310 311 311 312 310
289 288 288 288 288 288 287 287 287 287 288 289 291 293 294 294 293 294 295 295 294 295 297 297 296 297 299 302 304 305 305 306 308 309 309 310 310 310 311 312 312 311 311
287 289 288 286 288 289 288 286 287 287 288 289 291 293 293 292 291 292 294 293 294 296 295 297 299 299 302 304 306 308 308 308 309 308 310 310 311 311 312 313 312 312 311
285 286 288 286 287 288 287 288 290 289 288 290 291 290 289 289 290 292 291 292 296 297 299 300 300 302 303 306 307 308 309 309 309 310 310 309 310 312 312 312 312 311 312
283 285 286 286 287 288 288 289 287 288 288 289 288 288 288 288 289 290 291 295 297 298 299 301 302 304 304 307 306 309 308 309 309 309 308 309 311 312 312 312 312 313 313
283 285 286 287 287 288 289 288 288 288 288 285 286 287 288 289 291 292 294 295 297 298 300 301 303 305 306 306 307 308 308 307 308 307 308 310 310 311 311 312 312 312 313
283 283 283 283 285 286 288 288 286 285 284 284 286 287 288 291 292 292 294 296 296 297 300 302 302 303 304 306 306 306 306 305 306 307 308 309 310 311 311 312 312 312 312
281 282 282 283 284 285 284 285 288 289 286 286 287 288 288 289 290 292 294 296 297 299 299 300 302 301 303 303 304 304 304 304 305 306 308 309 311 311 312 312 312 310 311
282 280 281 280 281 284 285 287 286 287 288 287 286 287 288 289 290 292 295 297 297 297 298 298 300 301 300 302 303 303 303 304 305 306 308 309 309 310 310 309 309 309 309
283 284 285 285 285 286 287 287 286 286 288 289 288 288 291 292 293 293 294 295 296 296 296 299 297 299 300 301 302 303 303 303 305 307 307 308 309 310 309 308 308 307 308
286 286 285 285 286 286 287 286 287 288 289 290 289 288 290 291 292 293 294 293 294 295 295 297 297 299 299 300 301 301 302 305 306 307 307 308 309 308 308 308 306 305 307
284 284 284 284 285 286 286 287 286 286 286 286 287 288 289 290 290 291 291 292 292 294 295 297 297 298 298 298 300 301 303 305 304 306 306 307 307 307 306 304 304 305 305
281 282 283 283 283 284 284 283 285 285 285 286 286 286 286 286 288 289 290 292 293 293 295 295 297 297 298 300 301 303 303 304 305 305 305 306 306 306 306 306 305 305 304
281 282 282 281 281 280 280 280 282 283 282 282 283 283 285 286 287 289 290 292 294 293 295 295 296 297 299 301 302 302 303 304 305 305 306 306 306 306 306 305 305 304 303
281 281 281 280 280 280 280 281 283 284 284 283 283 284 286 287 289 289 290 291 292 293 294 295 296 298 299 300 300 301 302 303 303 305 306 305 304 305 304 303 303 303 303
281 282 282 283 283 284 284 284 284 284 284 285 286 287 288 288 289 290 291 291 292 293 295 296 297 297 299 300 300 301 303 304 304 305 304 304 304 304 302 302 302 302 301
283 283 284 284 284 284 285 285 286 286 286 286 286 287 288 289 289 290 290 292 294 295 296 296 297 298 299 300 301 301 302 303 304 303 303 302 302 302 301 301 301 299 298
283 284 285 286 286 286 286 286 286 286 287 288 288 288 289 289 290 292 293 293 294 294 295 296 297 298 299 300 301 302 301 302 302 301 302 302 301 301 301 300 299 298 296
283 284 284 285 285 286 286 287 287 288 288 289 289 290 291 292 292 293 294 294 294 295 296 297 298 298 298 299 299 299 300 300 300 300 300 300 300 300 299 298 297 296 294
283 284 284 284 285 285 286 287 288 289 289 290 290 290 290 291 292 292 293 294 295 296 297 297 297 297 297 298 298 298 299 299 299 299 300 299 299 299 298 297 296 294 293
283 284 285 285 286 287 288 288 288 288 288 289 290 291 291 292 292 293 293 294 295 294 295 295 296 296 296 296 297 298 298 299 300 299 299 299 298 298 297 296 295 294 292
284 285 285 286 287 287 287 287 288 289 290 291 291 291 292 292 292 292 292 293 293 294 294 294 295 295 295 296 297 298 299 299 299 299 298 297 297 297 296 295 295 294 292
284 285 286 286 286 287 288 289 290 290 290 291 291 290 291 291 291 291 291 291 291 292 293 293 294 294 295 296 297 297 297 298 297 297 296 296 296 296 295 294 294 293 291
Height
10646 10644 10642 10639 10635 10631 10627 10623 10620 10616 10612 10608 10603 10597 10591 10585 10580 10574 10566 10559 10552 10545 10537 10530 10521 10511 10499 10487 10476 10464 10453 10442 10429 10407 10393 10377 10364 10349 10333 10311 10292 10269 10243
10632 10630 10627 10625 10621 10617 10613 10610 10605 10601 10597 10591 10585 10579 10573 10567 10561 10554 10546 10539 10531 10524 10516 10508 10499 10487 10474 10463 10451 10439 10428 10415 10402 10387 10367 10350 10332 10316 10301 10280 10264 10241 10221
10617 10615 10612 10608 10605 10601 10597 10593 10588 10583 10578 10573 10567 10560 10554 10547 10539 10532 10524 10517 10509 10501 10494 10484 10474 10462 10450 10438 10426 10414 10400 10384 10370 10357 10341 10323 10307 10286 10270 10251 10233 10213 10197
10599 10596 10593 10590 10587 10584 10579 10575 10571 10565 10559 10554 10548 10540 10533 10525 10517 10509 10501 10493 10484 10476 10468 10459 10448 10436 10424 10412 10399 10386 10370 10352 10336 10322 10307 10292 10272 10253 10237 10225 10207 10184 10169
10583 10580 10575 10572 10569 10565 10561 10556 10552 10546 10540 10534 10527 10519 10511 10502 10492 10483 10475 10466 10457 10452 10442 10433 10421 10408 10394 10383 10371 10355 10336 10319 10303 10288 10276 10257 10236 10219 10204 10190 10172 10158 10145
10567 10563 10558 10553 10550 10546 10541 10537 10532 10526 10519 10512 10505 10496 10487 10477 10467 10459 10452 10439 10434 10426 10413 10402 10392 10377 10364 10352 10339 10322 10304 10287 10270 10257 10241 10221 10204 10186 10172 10159 10142 10124 10118
10547 10543 10538 10532 10529 10525 10520 10515 10510 10504 10497 10490 10482 10473 10464 10453 10443 10436 10425 10413 10409 10395 10382 10371 10358 10344 10330 10319 10306 10291 10271 10257 10237 10226 10207 10189 10176 10159 10150 10133 10114 10098 10084
10524 10520 10516 10511 10507 10502 10497 10492 10487 10481 10474 10466 10457 10449 10440 10429 10419 10410 10396 10391 10380 10367 10353 10340 10327 10311 10298 10287 10276 10256 10242 10221 10204 10191 10175 10159 10145 10131 10117 10102 10083 10071 10057
10499 10496 10492 10488 10485 10479 10474 10468 10462 10455 10448 10441 10432 10424 10414 10403 10394 10379 10371 10362 10351 10337 10323 10309 10295 10281 10266 10255 10244 10227 10212 10192 10176 10159 10145 10129 10115 10100 10086 10073 10055 10040 10037
10475 10472 10467 10464 10462 10457 10450 10444 10437 10430 10423 10415 10407 10397 10388 10377 10366 10353 10346 10337 10322 10309 10297 10279 10264 10251 10237 10223 10208 10197 10185 10167 10152 10133 10116 10101 10088 10074 10057 10040 10025 10011 10003
10449 10445 10441 10438 10434 10430 10425 10420 10412 10405 10397 10389 10381 10372 10362 10352 10339 10329 10317 10310 10293 10280 10266 10249 10236 10223 10207 10193 10179 10167 10152 10138 10124 10107 10095 10078 10061 10048 10031 10014 10000 9989 9981
10422 10419 10415 10411 10407 10403 10398 10392 10385 10379 10371 10363 10354 10345 10335 10324 10312 10299 10288 10276 10263 10253 10238 10224 10210 10193 10179 10164 10149 10134 10121 10109 10097 10084 10070 10056 10040 10026 10012 9994 9981 9968 9960
10394 10391 10387 10382 10377 10372 10367 10361 10355 10349 10341 10333 10325 10315 10303 10292 10281 10268 10257 10246 10233 10224 10209 10198 10184 10167 10154 10140 10122 10105 10090 10077 10063 10052 10039 10027 10012 9997 9984 9972 9958 9947 9940
10361 10358 10354 10352 10347 10342 10336 10330 10324 10316 10307 10299 10291 10282 10272 10261 10249 10238 10226 10212 10203 10191 10180 10171 10156 10140 10124 10110 10096 10079 10062 10048 10035 10021 10008 9996 9983 9970 9957 9947 9935 9928 9922
10331 10328 10323 10319 10314 10307 10302 10297 10290 10284 10278 10269 10259 10250 10239 10228 10216 10206 10195 10184 10170 10158 10147 10136 10120 10107 10096 10082 10070 10055 10040 10026 10012 9997 9983 9970 9959 9946 9935 9923 9913 9906 9902
10299 10295 10292 10288 10282 10276 10270 10264 10258 10251 10246 10238 10228 10219 10210 10199 10187 10175 10162 10150 10138 10126 10117 10104 10089 10074 10059 10046 10034 10021 10008 9995 9982 9969 9955 9942 9930 9919 9908 9896 9890 9884 9877
10266 10263 10259 10254 10248 10243 10238 10232 10226 10220 10214 10207 10197 10187 10177 10167 10154 10144 10131 10117 10105 10093 10083 10070 10057 10043 10027 10012 10000 9988 9977 9964 9954 9941 9928 9914 9902 9893 9883 9872 9868 9862 9855
10231 10228 10223 10219 10215 10210 10204 10199 10192 10186 10180 10172 10163 10153 10144 10133 10121 10110 10098 10088 10075 10062 10050 10038 10026 10012 9998 9987 9975 9962 9949 9937 9927 9916 9904 9891 9880 9872 9860 9851 9845 9841 9835
10198 10194 10190 10185 10180 10175 10170 10164 10158 10151 10143 10136 10128 10120 10110 10100 10087 10075 10064 10053 10042 10030 10017 10005 9992 9978 9966 9955 9943 9933 9921 9910 9899 9889 9878 9867 9858 9849 9839 9831 9824 9820 9816
10165 10160 10156 10152 10148 10142 10136 10129 10123 10116 10109 10101 10093 10085 10075 10064 10054 10043 10030 10019 10007 9995 9983 9971 9959 9947 9936 9923 9911 9901 9890 9881 9873 9863 9852 9844 9835 9826 9818 9811 9805 9800 9797
10133 10128 10123 10118 10113 10107 10101 10095 10088 10080 10072 10065 10057 10048 10037 10026 10017 10007 9996 9985 9973 9961 9951 9939 9929 9917 9906 9894 9882 9873 9863 9855 9847 9838 9829 9820 9811 9804 9798 9791 9786 9781 9777
10102 10097 10091 10086 10080 10073 10067 10060 10053 10046 10037 10029 10020 10011 10000 9991 9980 9969 9959 9949 9938 9928 9919 9908 9897 9886 9876 9866 9856 9846 9837 9830 9823 9814 9806 9797 9789 9784 9778 9772 9767 9762 9757
10068 10063 10058 10053 10048 10041 10034 10027 10019 10011 10003 9994 9986 9977 9968 9957 9946 9935 9925 9914 9904 9895 9886 9877 9866 9856 9848 9839 9831 9822 9811 9806 9799 9790 9782 9775 9770 9765 9759 9752 9748 9744 9740
10035 10031 10025 10019 10013 10007 10000 9992 9985 9977 9969 9961 9951 9942 9932 9923 9912 9903 9893 9882 9872 9864 9856 9848 9838 9828 9820 9813 9807 9799 9789 9781 9775 9768 9760 9754 9750 9745 9740 9734 9730 9726 9723
10000 9996 9991 9985 9979 9971 9964 9956 9948 9941 9933 9924 9915 9906 9897 9887 9878 9870 9861 9852 9844 9836 9829 9820 9811 9802 9794 9788 9783 9776 9769 9761 9753 9746 9739 9735 9730 9725 9720 9715 9712 9710 9706
9966 9961 9955 9950 9942 9935 9928 9920 9911 9904 9896 9888 9880 9871 9864 9856 9847 9839 9831 9823 9815 9808 9801 9794 9786 9778 9770 9764 9758 9751 9746 9740 9734 9727 9719 9715 9711 9707 9702 9698 9695 9694 9690